Location: Hawks Ness
(60.2333°N, 1.1667°W)
Time: 04:40:09
(UTC+00:00)

Cosmos 2344 - Pass Details

Date: 22 October 2019
Orbit: 1259 x 2983 km, 63.3° (Epoch: 17 November)

Event Time Altitude Azimuth Distance (km) Brightness Sun altitude
Exits shadow 01:55:45 56° 302° (WNW) 1,767 4.1 -35.4°
Maximum altitude 01:57:58 77° 12° (NNE) 1,634 4.0 -35.2°
Drops below altitude 10° 02:09:01 10° 100° (E) 4,489 6.7 -34.3°
Sets 02:12:56 0° 102° (ESE) 5,735 7.4 -34.0°
